FW8687 Weather Reports


time (UTC)temp
F
wind
direction
speed
knots
gust
knots
rain 1hr
in
rain 24hr
in
rain mn
in
humidity
%
barometer
mb
20260505123542 62 218 0.9 2.6 0.00 0.00 0.00 85 1016.7
20260505121540 59 111 0.0 0.9 0.00 0.00 0.00 91 1016.5
20260505115536 57 124 0.0 0.0 0.00 0.00 0.00 96 1016.4
20260505113535 54 134 0.0 0.0 0.00 0.00 0.00 99 1016.5
20260505111531 51 135 0.0 0.0 0.00 0.00 0.00 99 1016.1
20260505101525 51 142 0.0 0.0 0.00 0.00 0.00 98 1015.7
20260505095523 51 142 0.0 0.0 0.00 0.00 0.00 97 1015.5
20260505093520 51 142 0.0 0.0 0.00 0.00 0.00 97 1015.6
20260505091516 52 143 0.0 0.0 0.00 0.00 0.00 96 1015.4
20260505085513 52 142 0.0 0.0 0.00 0.00 0.00 96 1015.3
20260505083509 53 142 0.0 0.0 0.00 0.00 0.00 94 1015.1
20260505081506 53 142 0.0 0.0 0.00 0.00 0.00 93 1015.0
20260505075503 54 143 0.0 0.0 0.00 0.00 0.00 93 1014.7
20260505073458 54 141 0.0 0.0 0.00 0.00 0.00 92 1014.6
20260505071455 54 141 0.0 0.0 0.00 0.00 0.00 91 1014.8
20260505065454 55 141 0.0 0.0 0.00 0.00 0.00 90 1014.7
20260505063454 56 141 0.0 0.0 0.00 0.00 0.00 87 1014.9
20260505061454 56 141 0.0 0.0 0.00 0.00 0.00 86 1015.0
20260505055452 57 141 0.0 0.0 0.00 0.00 0.00 84 1015.3
20260505053447 57 141 0.0 0.0 0.00 0.00 0.00 83 1015.4
20260505051446 58 141 0.0 0.0 0.00 0.00 0.00 82 1015.5
20260505041439 61 141 0.0 0.0 0.00 0.00 0.00 76 1015.5
20260505035438 61 171 0.0 0.0 0.00 0.00 0.00 74 1015.5
20260505033437 62 143 0.0 0.0 0.00 0.00 0.00 72 1015.6
20260505031432 63 143 0.0 0.9 0.00 0.00 0.00 71 1015.8
20260505025429 64 143 0.0 0.0 0.00 0.00 0.00 69 1015.8
20260505023425 64 138 0.0 0.0 0.00 0.00 0.00 68 1015.6
20260505021424 65 133 0.0 0.9 0.00 0.00 0.00 65 1015.6
20260505015422 66 140 0.0 0.0 0.00 0.00 0.00 63 1015.5
20260505013421 68 127 0.0 0.9 0.00 0.00 0.00 60 1015.5
20260505011421 69 233 2.6 4.3 0.00 0.00 0.00 57 1015.0
20260505005419 70 207 0.9 5.2 0.00 0.00 0.00 56 1014.8
20260505003418 71 187 0.9 4.3 0.00 0.00 0.00 54 1014.3
20260505001413 71 146 0.9 1.7 0.00 0.00 0.00 55 1014.1
20260504235413 73 116 0.0 1.7 0.00 0.00 0.00 52 1013.8
20260504233410 75 244 0.0 0.9 0.00 0.00 0.00 43 1013.7
20260504231409 76 179 1.7 1.7 0.00 0.00 0.00 40 1013.6
20260504225409 77 162 0.9 4.3 0.00 0.00 0.00 39 1013.6
20260504223408 79 255 1.7 4.3 0.00 0.00 0.00 38 1013.6
20260504221408 80 305 1.7 4.3 0.00 0.00 0.00 35 1013.5
20260504215406 81 116 0.0 0.9 0.00 0.00 0.00 36 1013.6
20260504213404 82 271 2.6 5.2 0.00 0.00 0.00 33 1013.4
20260504211403 82 208 0.9 2.6 0.00 0.00 0.00 34 1013.6
20260504205358 82 207 2.6 8.7 0.00 0.00 0.00 34 1013.6
20260504203355 82 194 0.9 4.3 0.00 0.00 0.00 34 1013.6
20260504201354 81 289 5.2 5.2 0.00 0.00 0.00 35 1013.9
20260504195351 82 271 4.3 6.1 0.00 0.00 0.00 34 1013.9
20260504193349 81 145 1.7 4.3 0.00 0.00 0.00 35 1014.2
20260504191348 82 239 4.3 5.2 0.00 0.00 0.00 32 1014.5
20260504185344 82 261 1.7 4.3 0.00 0.00 0.00 34 1014.8
20260504183342 80 145 0.9 4.3 0.00 0.00 0.00 35 1015.2
20260504181342 80 171 2.6 5.2 0.00 0.00 0.00 34 1015.4
20260504175339 79 293 1.7 1.7 0.00 0.00 0.00 36 1015.4
20260504173339 77 260 1.7 5.2 0.00 0.00 0.00 37 1015.6
20260504171338 78 67 0.0 0.9 0.00 0.00 0.00 36 1015.8
20260504141315 67 162 0.9 1.7 0.00 0.00 0.00 58 1017.1